This demonstration page uses our WeatherBlox Daily Observations layout. Learn more.

Left ArrowRight Arrow

41.55636, -103.73856

Hourly Observations for October 28, 2021

Temp ( °F °C ) Dew Point ( °F °C ) Humidity (%) Winds ( mph kmh ) Pressure ( in mb ) Visibility ( mi km ) Precip ( " mm )
12:58 am 00:58 Mostly Cloudy 40 4.3 30 -0.9 69 69 NW 13 20 30.09 1019 10 16 N/A
1:58 am 01:58 Mostly Clear 38 3.4 29 -1.7 70 70 WNW 13 20 30.14 1021 10 16 N/A
2:58 am 02:58 Mostly Cloudy 38 3.3 25 -4 59 59 NW 17 28 30.16 1021 10 16 N/A
3:58 am 03:58 Mostly Clear 37 3 23 -4.9 57 57 NW 13 20 30.14 1021 10 16 N/A
4:58 am 04:58 Clear 36 2.2 24 -4.6 61 61 NW 15 24 30.17 1022 10 16 N/A
5:58 am 05:58 Partly Cloudy 36 2.3 23 -4.9 59 59 NW 17 28 30.20 1023 10 16 N/A
6:58 am 06:58 Cloudy 37 2.6 22 -5.4 56 56 NW 18 30 30.22 1023 10 16 N/A
7:58 am 07:58 Mostly Cloudy 37 3 22 -5.6 54 54 NW 20 31 30.24 1024 10 16 N/A
8:58 am 08:58 Mostly Cloudy 40 4.3 21 -6 47 47 NW 23 37 30.26 1025 10 16 N/A
9:58 am 09:58 Mostly Sunny 43 6.1 20 -6.4 41 41 NNW 23 37 30.27 1025 10 16 N/A
12:56 pm 12:56 Sunny 49 9.4 19 -7.5 30 30 N 28 44 30.23 1024 10 16 N/A
1:58 pm 13:58 Sunny 51 10.7 20 -6.9 29 29 N 23 37 30.22 1023 10 16 N/A
2:58 pm 14:58 Sunny 52 11 20 -6.8 28 28 N 24 39 30.22 1023 10 16 N/A
3:58 pm 15:58 Sunny 52 11 21 -6.3 29 29 N 23 37 30.23 1024 10 16 N/A
5:56 pm 17:56 Clear 47 8.2 22 -5.3 38 38 N 13 20 30.26 1025 10 16 N/A
6:56 pm 18:56 Clear 43 6.3 23 -5.1 44 44 NNW 5 7 30.27 1025 10 16 N/A
7:58 pm 19:58 Clear 39 4.1 23 -4.8 53 53 WNW 3 6 30.28 1026 10 16 N/A
8:58 pm 20:58 Clear 38 3.1 24 -4.3 59 59 SW 5 7 30.29 1026 10 16 N/A
9:58 pm 21:58 Clear 38 3.6 24 -4.2 57 57 SW 6 9 30.28 1026 10 16 N/A
10:58 pm 22:58 Clear 39 3.8 24 -4.5 55 55 SW 6 9 30.32 1027 10 16 N/A
11:58 pm 23:58 Clear 34 1 25 -4 70 70 SW 7 11 30.35 1028 10 16 N/A

Powered by AerisWeather